Location: ????????
(41.2031°N, 22.5756°E)
Time: 14:06:23
(UTC+00:00)

Cosmos 158 Rocket - Pass Details

Date: 01 December 2020
Orbit: 698 x 793 km, 74.0° (Epoch: 20 January)

Event Time Altitude Azimuth Distance (km) Brightness Sun altitude
Rises 17:12:00 0° 207° (SSW) 3,130 7.7 -24.0°
Reaches altitude 10° 17:14:23 10° 211° (SSW) 2,199 6.9 -24.4°
Maximum altitude 17:19:17 60° 292° (WNW) 812 4.3 -25.3°
Enters shadow 17:21:03 37° 355° (N) 1,099 4.7 -25.6°
